www.pogodaiklimat.ru

Погода и климат >> Архив погоды >> Россия >> Нижегородская область >> Лысково


ПОГОДА в Лысково

  • Прогноз погоды в Лысково
  • Монитор погоды в Лысково

АРХИВ ПОГОДЫ в Лысково

Время (UTC), дата Ветер
(напр.,м/с)
 
Видим.   Явления Облачность Т
(С)
Тd
(С)
f
(%)
Тe
(С)
Тes
(С)
Комфортность P
(гПа)
Po
(гПа)
Тmin
(С)
Tmax
(С)
R
(мм)
R24
(мм)
S
(см)
15 15.01 ЮВ 4-8
{9}
10 км слаб. снег {метель} 10/10 300 м
[Frnb]
-1.8 -2.9 92 -8 -8 998.7 983.2 -1.8 0.8
18 15.01 Ю 4-8
{9}
10 км в посл. час снег {метель} 10/6 300 м
[Frnb As trans]
+0.4 -1.2 89 -5 -5 999.1 983.7
21 15.01 Ю 3-5
{8}
20 км 9/6 600 м
[Sc Ac trans]
-2.1 -6.0 75 -7 -7 1001.1 985.6
00 16.01 Ю 2-4
{5}
20 км 9/9 600 м
[Sc]
-2.9 -6.3 77 -7 -7 1001.7 986.2
03 16.01 Ю 2-5
{5}
10 км слаб. снег 9/9 300 м
[Frnb]
-2.5 -5.4 80 -6 -6 1000.9 985.4 -4.3 0.0 26
06 16.01 СВ 1-1
{2}
2000 м снег 10/10 300 м
[Frnb Ns]
-3.2 -4.2 93 -6 -6 999.4 983.9
09 16.01 СЗ 1-2
{2}
2000 м снег 10/10 200 м
[Frnb Ns]
-2.9 -4.2 91 -5 -5 997.7 982.3
12 16.01 СЗ 2-4
{4}
2000 м снег 10/10 200 м
[Frnb Ns]
-3.3 -4.4 92 -8 -8 996.0 980.6
15 16.01 З 2-4
{5}
2000 м снег 10/9 200 м
[Frnb As trans]
-4.1 -5.3 91 -8 -8 995.7 980.2 -2.1 7
18 16.01 З 2-4
{6}
2000 м снег 10/9 200 м
[Frnb As trans]
-4.8 -6.1 91 -9 -9 997.3 981.8
21 16.01 З 4-6
{7}
10 км слаб. снег 9/9 300 м
[Frnb]
-5.5 -7.6 85 -12 -12 1000.1 984.4
00 17.01 З 5-8
{9}
10 км слаб. снег 10/10 300 м
[Frnb]
-7.8 -10.0 84 -15 -15 1002.9 987.1
03 17.01 ЮЗ 3-7
{8}
10 км слаб. снег 10/10 300 м
[Frnb]
-8.1 -10.4 83 -14 -14 1004.6 988.7 -8.3 1 34
06 17.01 Ю 4-7
{8}
10 км слаб. снег 10/10 300 м
[Frnb]
-7.9 -10.1 84 -15 -15 1006.2 990.3 -8.8
09 17.01 Ю 4-7
{8}
10 км слаб. снег 10/10 200 м
[Frnb]
-6.3 -9.0 81 -13 -13 1006.7 990.9
12 17.01 Ю 4-8
{9}
10 км слаб. снег 9/9 600 м
[Sc]
-5.2 -8.1 80 -12 -12 1006.5 990.8
15 17.01 Ю 5-11
{11}
20 км {снег} 9/9 300 м
[Frnb]
-4.8 -8.0 78 -12 -12 1005.8 990.1 -4.5 0.0
18 17.01 Ю 6-13
{14}
10 км слаб. снег 10/9 300 м
[Frnb As trans]
-4.9 -8.1 78 -13 -13 1004.2 988.5
21 17.01 Ю 5-12
{14}
4000 м слаб. снег {метель} 10/10 200 м
[Frnb Ns]
-5.1 -7.6 83 -12 -12 1001.7 986.1
00 18.01 Ю 6-13
{14}
2000 м снег {метель} 10/10 200 м
[Frnb Ns]
-4.4 -6.7 84 -12 -12 999.9 984.3
03 18.01 Ю 7-14
{16}
2000 м снег {метель} 10/10 200 м
[Frnb Ns]
-3.6 -6.1 83 -12 -12 999.0 983.4 -5.4 1 31
06 18.01 ЮЗ 6-10
{15}
10 км в посл. час снег {метель} 9/9 200 м
[Frnb]
-2.5 -5.4 80 -10 -10 1000.4 984.9
09 18.01 ЮЗ 5-11
{11}
10 км 10/10 600 м
[Sc]
-1.2 -4.5 78 -7 -7 1002.1 986.7
12 18.01 ЮЗ 6-12
{12}
20 км 9/9 600 м
[Sc]
-0.4 -3.1 82 -7 -7 1003.1 987.7
15 18.01 Ю 5-9
{12}
20 км 9/9 600 м
[Sc]
-0.8 -3.3 83 -7 -7 1004.7 989.3 -0.3 0.0
18 18.01 Ю 5-9
{10}
20 км 8/6 300 м
[Frnb Cc]
-1.6 -3.6 86 -8 -8 1004.8 989.3
21 18.01 Ю 4-7
{13}
2000 м снег {метель} 10/10 200 м
[Frnb Ns]
-1.1 -1.8 95 -7 -7 1002.7 987.3
00 19.01 Ю 7-13
{14}
10 км слаб. снег {метель} 10/10 300 м
[Frnb]
+0.7 -1.7 84 -6 -6 1001.1 985.8
03 19.01 ЮЗ 6-10
{14}
20 км в посл. час снег {метель} 9/9 200 м
[Frnb]
+1.1 -1.8 81 -5 -5 1001.4 986.2 -1.8 0.8 31
06 19.01 ЮЗ 5-10
{11}
10 км {снег, метель} 9/9 300 м
[Frnb]
+1.1 -1.8 81 -5 -5 1001.9 986.7
09 19.01 З 4-8
{11}
20 км в посл. час ливневой снег {метель} 9/6 300 м
[Cb cap Ac trans]
-3.4 -7.7 72 -9 -9 1007.0 991.3
12 19.01 З 2-3
{9}
20 км {ливн. осадки, метель} 1/0
[Ci fib]
-5.1 -10.1 68 -9 -9 1008.6 992.8
15 19.01 Ю 2-3
{4}
20 км ясно -8.9 -11.3 83 -13 -13 1009.8 993.8 +1.3 0.3
18 19.01 ЮЗ 2-4
{5}
20 км 9/9 600 м
[Sc]
-6.7 -10.4 75 -11 -11 1010.1 994.2
21 19.01 ЮЗ 2-3
{5}
10 км слаб. снег 10/8 300 м
[Frnb As trans]
-6.9 -9.8 80 -11 -11 1010.8 994.9
00 20.01 Ю 2-4
{5}
10 км в посл. час снег 9/9 300 м
[Frnb]
-8.1 -10.4 83 -13 -13 1011.5 995.5
03 20.01 ЮЗ 2-3
{5}
10 км слаб. снег 9/9 300 м
[Frnb]
-7.7 -9.5 87 -12 -12 1012.5 996.5 -10.5 0.0 31
06 20.01 З 3-5
{9}
10 км слаб. снег 10/3 600 м
[Sc Cs]
-10.3 -13.1 80 -16 -16 1014.7 998.5
09 20.01 ЮЗ 3-5
{5}
20 км {снег} 1/1 600 м
[Sc]
-8.3 -12.5 72 -14 -13 1015.0 998.9
12 20.01 Ю 4-6
{7}
20 км {снег} 8/3 600 м
[Sc Ac trans]
-8.3 -12.0 75 -15 -15 1013.6 997.5
15 20.01 Ю 5-8
{9}
20 км 4/0
[Ac trans Ci fib]
-7.9 -12.0 72 -15 -15 1011.5 995.5 -6.6 0.0
18 20.01 ЮЗ 6-11
{11}
20 км 10/5 600 м
[Sc Ac As Ci]
-6.1 -10.5 71 -14 -14 1010.5 994.6
21 20.01 Ю 4-8
{13}
4000 м слаб. снег {метель} 10/10 300 м
[Frnb]
-6.7 -9.5 80 -13 -13 1010.3 994.4
00 21.01 ЮЗ 4-7
{10}
4000 м слаб. снег {метель} 10/10 300 м
[Frnb]
-6.3 -8.6 84 -13 -13 1009.8 993.9
03 21.01 ЮЗ 3-6
{8}
10 км слаб. снег 9/8 300 м
[Frnb Ac As]
-6.5 -8.5 86 -12 -12 1009.1 993.3 -8.0 0.2 31
06 21.01 Ю 3-6
{8}
4000 м слаб. снег 10/8 300 м
[Frnb Ac As]
-6.5 -8.9 83 -12 -12 1009.0 993.1
09 21.01 Ю 3-7
{8}
10 км слаб. снег {метель} 10/8 300 м
[Frnb Ac As]
-7.1 -10.0 80 -13 -13 1008.9 993.0
12 21.01 Ю 3-5
{7}
20 км слаб. снег {метель} 9/6 300 м
[Frnb Ac As]
-7.7 -10.3 82 -13 -13 1008.0 992.1
15 21.01 ЮЗ 3-5
{6}
20 км {снег} 9/8 600 м
[Sc Ac trans]
-8.7 -11.6 79 -14 -14 1007.8 991.9 -6.3 0.5
18 21.01 Ю 2-3
{5}
20 км в посл. час снег 9/3 600 м
[Sc Ac trans]
-9.5 -11.6 85 -14 -14 1007.6 991.6
21 21.01 Ю 2-2
{4}
20 км в посл. час снег 8/4 300 м
[Frnb Ac trans]
-12.6 -13.9 90 -17 -17 1008.2 992.1
00 22.01 ЮЗ 2-3
{5}
20 км слаб. снег 6/0
[Ac trans Cs]
-14.3 -16.3 85 -19 -19 1009.2 992.8
03 22.01 ЮЗ 2-3
{4}
10 км ледяные иглы {снег} 9/0
[Cs]
-16.5 -18.4 85 -22 -22 1010.3 993.8 -16.9 0.0 31
06 22.01 ЮЗ 2-2
{4}
20 км {снег} 1/0
[Ac lent]
-17.7 -19.6 85 -23 -23 1011.9 995.3 -17.7
09 22.01 З 4-6
{6}
10 км слаб. снег 10/9 300 м
[Frnb As trans]
-15.4 -18.1 80 -23 -23 1013.3 996.8
12 22.01 ЮЗ 2-3
{6}
10 км слаб. снег 9/0
[Cs]
-15.2 -17.9 80 -20 -20 1014.6 998.1

 

Местоположение метеостанции Лысково (Нижегородская область, Россия): широта 56.01 долгота 45.03 высота над уровнем моря 124 м.

В архиве по умолчанию представлена погода в Лысково за последнюю неделю. Архивные данные за месяц целиком и за предыдущие месяцы, начиная с января 2011 года, Вы можете получить, выбрав интересующий диапазон дат из раскрывающегося списка и нажав кнопку "Ввод!".


*Определитесь, кто Вы:
робот инопланетянин человек

Внимание! Время в таблицах - всемирное. Для получения местного времени необходимо прибавить поправку, которая равна 3 ч.

Смотрите также архив погоды в соседних городах и на ближайших метеорологических станциях:

Погода в Сергаче (Нижегородская область, Россия) (61 км)
Погода в Дальнем Константиново (Нижегородская область, Россия) (64 км)
Погода в Нижнем Новгороде (Нижегородская область, Россия) (70 км)
Погода в Нижнем Новгороде аэропорт (Нижегородская область, Россия) (82 км)
Погода в Семенове (Нижегородская область, Россия) (86 км)
Погода в Воскресенском (Нижегородская область, Россия) (92 км)
Погода в Козьмодемьянске (Марий-Эл, Россия) (102 км)
Погода в Арзамасе (Нижегородская область, Россия) (106 км)
Погода в Большом Болдино (Нижегородская область, Россия) (112 км)
Погода в Лукоянове (Нижегородская область, Россия) (114 км)

Пояснения к столбцам:

Ветер - указаны скорость ветра в м/с - средняя за 10 мин, порывы в срок и между сроками (в фигурных скобках) и направление, откуда дует ветер: С - северный, СВ - северо-восточный, В - восточный, ЮВ - юго-восточный, Ю - южный, ЮЗ - юго-западный, З - западный, СЗ - северо-западный.
Видимость - горизонтальная дальность видимости в метрах или километрах. При видимости от 1 до 10 км при отсутствии осадков обычно наблюдается дымка, при ухудшении видимости до 1 км и менее - туман. В сухую погоду видимость может ухудшаться дымом, пылью или мглою.
Явления - указаны атмосферные явления, наблюдавшиеся в срок или в последний час перед сроком; фигурными скобками обозначены явления, наблюдавшиеся между сроками (за 1-3 часа до срока); квадратными скобками обозначены град или гололедные отложения с указанием их диаметра в мм.
Облачность - указаны через наклонную черту общая и нижняя облачность в баллах и высота нижней границы облаков в метрах; квадратными скобками обозначены формы облаков: Ci - перистые, Cs - перисто-слоистые, Cc - перисто-кучевые, Ac - высококучевые, As - высокослоистые, Sc - слоисто-кучевые, Ns - слоисто-дождевые, Cu - кучевые, Cb - кучево-дождевые. Подробнее классификацию облаков см. в Атласе облаков (PDF).
T - Температура воздуха - температура, измеренная на высоте 2 м над землей.
Td - Температура точки росы - температура, при понижении до которой содержащийся в воздухе водяной пар достигнет насыщения.
f - Относительная влажность воздуха - влажноcть воздуха, измеренная на высоте 2 м над землей.
Te - Эффективная температура - температура, которую ощущает одетый по сезону человек в тени. Характеристика душности погоды. При расчете учитывается влияние влажности воздуха и скорости ветра на теплоощущения человека.
Tes - Эффективная температура на солнце - температура, которую ощущает человек, с поправкой на солнечный нагрев. Характеристика знойности погоды. Зависит от высоты солнца над горизонтом, облачности и скорости ветра. Ночью, в пасмурную погоду, а также при ветре 12 м/с и более поправка равна нулю.
P - Атмосферное давление - приведенное к уровню моря атмосферное давление.
Po - Атмосферное давление - измеренное на уровне метеостанции атмосферное давление.
Tmin - Минимальная температура - минимум температуры воздуха на высоте 2 м над землей.
Tmax - Максимальная температура - максимум температуры воздуха на высоте 2 м над землей.
R - Количество осадков - Количество выпавших осадков за период времени, мм. При наведении курсора мыши на число - период времени, за который выпало указанное количество осадков.
R24 - Количество осадков - Количество выпавших осадков за 24 часа, мм.
S - Снежный покров - Высота снежного покрова, см. При наведении курсора мыши на число - состояние снежного покрова и степень покрытия местности в баллах.